Home   Weather   Hefei   Past weeks

Flag for China Past Weather in Hefei, Anhui, China — Yesterday and Last 2 Weeks

Now
41 °F

Fog.


Feels Like: 36 °F
Forecast: 35 / 59 °F
Wind: 8 mph from South

Location: Hefei Airport

Current Time: Dec 6, 2016 at 10:24:13 pm

Latest Report: Dec 6, 2016 at 10:00 pm


Visibility: 2 mi

Pressure: 30.24 "Hg

Humidity: 81%

Dew Point: 36 °F

Location of HefeiLocation

Past Weather in Hefei — Graph

°F

Hefei Temperature Yesterday

Maximum temperature yesterday: 66 °F (at 1:00 pm)
Minimum temperature yesterday: 41 °F (at 4:00 am)
Average temperature yesterday: 49 °F

High & Low Weather Summary for the Past Weeks

 TemperatureHumidityPressure
High66 °F (Dec 4, 2:00 pm)100% (Nov 24, 1:00 am)30.63 "Hg (Nov 24, 1:00 am)
Low21 °F (Nov 24, 4:00 am)32% (Dec 4, 3:00 pm)30.07 "Hg (Dec 4, 2:00 pm)
Average44 °F76%30.37 "Hg
* Reported Nov 21 9:00 pm — Dec 6 9:00 pm, Hefei, Weather by CustomWeather, © 2016

Note: Actual official high and low records may vary slightly from our data, if they occured in-between our weather recording intervals... More about our weather records

Advertising

Hefei Weather History for the Previous 24 Hours

Scroll right to see more
 ConditionsComfort  
Time TempWeatherWind HumidityBarometerVisibility
9:00 pm
Tue, Dec 6
41 °FFog.3 mph81%30.24 "Hg2 mi
8:00 pm41 °FFog.1 mph81%30.24 "Hg2 mi
7:00 pm45 °FHaze.1 mph71%30.24 "Hg3 mi
6:00 pm45 °FHaze.6 mph66%30.24 "Hg3 mi
5:00 pm50 °FClear.10 mph50%30.24 "Hg4 mi
4:00 pm54 °FSunny.8 mph41%30.24 "Hg10 mi
3:00 pm54 °FClear.10 mph41%30.27 "Hg5 mi
2:00 pm52 °FClear.8 mph47%30.30 "Hg4 mi
1:00 pm52 °FHaze.8 mph44%30.36 "Hg3 mi
12:00 pm50 °FHaze.6 mph54%30.42 "Hg2 mi
11:00 am46 °FHaze.6 mph66%30.45 "Hg2 mi
10:00 am43 °FFog.6 mph76%30.48 "Hg2 mi
9:00 am41 °FFog.3 mph81%30.51 "Hg2 mi
8:00 am36 °FFog.3 mph93%30.51 "Hg2 mi
7:00 am36 °FFog.1 mph93%30.51 "Hg2 mi
6:00 am36 °FFog.1 mph93%30.51 "Hg2 mi
5:00 am37 °FFog.3 mph87%30.51 "Hg1 mi
4:00 am37 °FFog.3 mph93%30.51 "Hg1 mi
3:00 am37 °FFog.3 mph93%30.54 "Hg1 mi
2:00 am37 °FFog.1 mph93%30.54 "Hg1 mi
1:00 am39 °FFog.3 mph93%30.54 "Hg1 mi
12:00 am37 °FFog.6 mph93%30.54 "Hg1 mi
11:00 pm
Mon, Dec 5
41 °FFog.6 mph87%30.54 "Hg1 mi
10:00 pm41 °FFog.8 mph87%30.54 "Hg1 mi
Weather by CustomWeather, © 2016

See weather overviewHow to use our weather pages